Home > Weather > Lehrte > Past weeks

Flag for Germany Weather for the Past 2 Weeks in Lehrte, Lower Saxony, Germany

Now
41 °F

Light rain. Passing clouds.


Feels Like: 34 °F
Forecast: 38 / 42 °F
Wind: 12 mph from Southwest

Location: Hannover

Current Time: Feb 10, 2016 at 7:58:17 PM

Latest Report: Feb 10, 2016 at 7:20 PM


Visibility: N/A

Pressure: 29.33 "Hg

Humidity: 87%

Dew point: 37 °F

Location of LehrteLocation

Historic Weather in Lehrte — Graph

°F

Lehrte Temperature Yesterday

Maximum temperature yesterday: 48 °F (at 7:20 PM)
Minimum temperature yesterday: 34 °F (at 11:20 PM)
Average temperature yesterday: 44 °F

High & Low Weather Summary for the Past Weeks

 TemperatureHumidityPressure
High55 °F (Feb 7, 11:50 AM)100% (Jan 30, 7:50 PM)30.27 "Hg (Jan 30, 7:50 PM)
Low34 °F (Feb 9, 11:20 PM)59% (Feb 7, 11:50 AM)28.80 "Hg (Feb 9, 6:50 PM)
Average45 °F83%29.77 "Hg
* Reported Jan 26 6:20 PM — Feb 10 6:50 PM, Lehrte, Weather by CustomWeather, © 2016

Note: Actual official high and low records may vary slightly from our data, if they occured in-between our weather recording intervals... More about our weather records

Advertising

Lehrte Weather History for the Previous 24 Hours

 ConditionsComfort  
Time TempWeatherWind HumidityBarometerVisibility
6:50 PM
Wed, Feb 10
41 °FPassing clouds.12 mph87%29.33 "HgN/A
6:20 PM41 °FPassing clouds.9 mph87%29.30 "HgN/A
5:50 PM41 °FPartly cloudy.9 mph87%29.30 "HgN/A
5:20 PM41 °FPartly sunny.10 mph87%29.30 "HgN/A
4:50 PM41 °FPartly sunny.12 mph87%29.30 "HgN/A
4:20 PM41 °FPartly sunny.10 mph87%29.30 "HgN/A
3:50 PM41 °FPartly sunny.12 mph93%29.27 "HgN/A
3:20 PM39 °FLight rain. Partly sunny.9 mph93%29.27 "Hg6 mi
2:50 PM39 °FLight rain. Partly sunny.12 mph93%29.27 "Hg6 mi
2:20 PM39 °FLight rain. Partly sunny.10 mph93%29.27 "HgN/A
1:50 PM39 °FPartly sunny.8 mph87%29.27 "HgN/A
1:20 PM39 °FPartly sunny.13 mph87%29.27 "HgN/A
12:50 PM39 °FBroken clouds.12 mph87%29.27 "HgN/A
12:20 PM39 °FPartly sunny.13 mph87%29.27 "HgN/A
11:50 AM39 °FPartly sunny.12 mph87%29.27 "HgN/A
11:20 AM37 °FLight rain. Partly sunny.12 mph93%29.27 "HgN/A
10:50 AM37 °FLight rain. Broken clouds.10 mph93%29.24 "HgN/A
10:20 AM37 °FLight rain. Partly sunny.8 mph93%29.24 "HgN/A
9:50 AM37 °FLight rain. Partly sunny.13 mph93%29.24 "Hg6 mi
9:20 AM37 °FSprinkles. Broken clouds.10 mph93%29.24 "HgN/A
8:50 AM39 °FBroken clouds.12 mph87%29.24 "HgN/A
8:20 AM37 °FPartly sunny.9 mph87%29.21 "HgN/A
7:50 AM37 °FScattered clouds.8 mph87%29.21 "HgN/A
7:20 AM37 °FPassing clouds.7 mph87%29.21 "HgN/A
6:50 AM37 °FPassing clouds.8 mph87%29.21 "HgN/A
6:20 AM37 °FPassing clouds.8 mph87%29.21 "HgN/A
5:50 AM37 °FPassing clouds.9 mph87%29.18 "HgN/A
5:20 AM37 °FPassing clouds.8 mph87%29.21 "HgN/A
4:50 AM37 °FPassing clouds.6 mph87%29.18 "HgN/A
4:20 AM37 °FPassing clouds.9 mph87%29.18 "HgN/A
3:50 AM37 °FPassing clouds.13 mph93%29.18 "HgN/A
3:20 AM37 °FPassing clouds.14 mph93%29.18 "HgN/A
2:50 AM37 °FPassing clouds.15 mph93%29.15 "HgN/A
2:20 AM37 °FPassing clouds.14 mph93%29.15 "HgN/A
1:50 AM37 °FPassing clouds.14 mph93%29.15 "HgN/A
1:20 AM37 °FPassing clouds.16 mph93%29.12 "HgN/A
12:20 AM36 °FLight rain. Passing clouds.16 mph100%29.09 "HgN/A
11:50 PM
Tue, Feb 9
36 °FLight rain. Passing clouds.21 mph100%29.06 "HgN/A
11:20 PM34 °FLight rain. Fog.24 mph100%29.00 "Hg2 mi
10:20 PM36 °FLight rain. Passing clouds.25 mph93%28.88 "HgN/A
9:50 PM37 °FSprinkles. Passing clouds.28 mph87%28.85 "HgN/A
9:20 PM43 °FPassing clouds.28 mph81%28.82 "HgN/A
8:50 PM46 °FPassing clouds.23 mph87%28.80 "HgN/A
8:20 PM48 °FPassing clouds.20 mph76%28.80 "HgN/A
7:50 PM48 °FPassing clouds.16 mph76%28.82 "HgN/A
7:20 PM48 °FPassing clouds.20 mph82%28.82 "HgN/A
Weather by CustomWeather, © 2016

See weather overviewHow to use our weather pages